This is the latest recevied weather packets stored in our database for station/object KB3UMW-13. If no packets are shown the sender has not sent any weather packets the latest 10 day(s).
| Time | Temp. | Humidity | Pressure | Rain* | Wind** | Luminosity | Snow |
|---|---|---|---|---|---|---|---|
| 1777914953 | 18.33° C | 54% | 1011.8 hPa | 0 mm | - | 316 W/m² | - |
| 1777914650 | 17.78° C | 54% | 1012 hPa | 0 mm | - | 558 W/m² | - |
| 1777914345 | 18.33° C | 52% | 1011.9 hPa | 0 mm | - | 382 W/m² | - |
| 1777914044 | 18.33° C | 50% | 1012.4 hPa | 0 mm | - | 900 W/m² | - |
| 1777913739 | 17.22° C | 56% | 1012.4 hPa | 0 mm | - | 1065 W/m² | - |
| 1777913436 | 17.22° C | 59% | 1012.5 hPa | 0 mm | - | 443 W/m² | - |
| 1777913132 | 17.22° C | 54% | 1012.7 hPa | 0 mm | - | 432 W/m² | - |
| 1777912829 | 16.67° C | 54% | 1012.6 hPa | 0 mm | - | 330 W/m² | - |
| 1777912526 | 17.78° C | 50% | 1012.4 hPa | 0 mm | - | 297 W/m² | - |
| 1777912222 | 17.78° C | 52% | 1012.5 hPa | 0 mm | - | 440 W/m² | - |
| 1777911918 | 17.78° C | 53% | 1012.7 hPa | 0 mm | - | 247 W/m² | - |
| 1777911614 | 17.78° C | 49% | 1012.5 hPa | 0 mm | - | 1031 W/m² | - |
| 1777911310 | 17.78° C | 53% | 1012.8 hPa | 0 mm | - | 909 W/m² | - |
| 1777911009 | 18.33° C | 51% | 1012.6 hPa | 0 mm | - | 526 W/m² | - |
| 1777910706 | 18.89° C | 48% | 1012.7 hPa | 0 mm | - | 517 W/m² | - |
| 1777910402 | 18.33° C | 50% | 1012.8 hPa | 0 mm | - | 1004 W/m² | - |
| 1777910098 | 17.78° C | 58% | 1012.9 hPa | 0 mm | - | 747 W/m² | - |
| 1777909796 | 17.22° C | 52% | 1013 hPa | 0 mm | - | 1047 W/m² | - |
| 1777909493 | 16.67° C | 48% | 1013.1 hPa | 0 mm | - | 291 W/m² | - |
| 1777909190 | 17.22° C | 51% | 1013.4 hPa | 0 mm | - | 289 W/m² | - |
| 1777908888 | 16.67° C | 50% | 1013.2 hPa | 0 mm | - | 386 W/m² | - |
| 1777908586 | 17.22° C | 50% | 1013.1 hPa | 0 mm | - | 274 W/m² | - |
| 1777908282 | 16.11° C | 48% | 1013.2 hPa | 0 mm | - | 224 W/m² | - |
| 1777907978 | 16.67° C | 51% | 1013.1 hPa | 0 mm | - | 484 W/m² | - |
| 1777907674 | 18.33° C | 51% | 1013 hPa | 0 mm | - | 299 W/m² | - |
* Rain latest hour (hover to see other rain measurements)
** Current wind speed in m/s (hover to see current wind gust speed)